Tracking 26955 objects as of 2-Feb-2023
HD Live streaming from Space Station
objects crossing your sky now

LEMUR 2 KUNGFOO

Track LEMUR 2 KUNGFOO now!
10-day predictions
LEMUR 2 KUNGFOO is classified as:


NORAD ID: 42774
Int'l Code: 2017-036K
Perigee: 444.7 km
Apogee: 455.6 km
Inclination: 97.2 °
Period: 93.4 minutes
Semi major axis: 6821 km
RCS: Unknown
Launch date: June 23, 2017
Source: United States (US)
Launch site: SRIHARIKOTA (SRI)
Your satellite tracking list
Your tracking list is empty




NASA's NSSDC Master Catalog

Two Line Element Set (TLE):
1 42774U 17036K   23033.01242581  .00033123  00000-0  80056-3 0  9999
2 42774  97.1722  74.2363 0007996 198.4947 161.6010 15.41056186312213
Source of the keplerian elements: AFSPC